ATLAS AGENA B DEB, 630

Orbit data source: Space-Track

ATLAS AGENA B DEB, 630 is space debris in LEO originally from a launch on Fri, 19 Jul 1963 UTC launched from the Air Force Western Test Range (AFWTR). Debris objects in space refer to the collection of defunct objects orbiting the Earth. Examples of debris include non-operational satellites, rocket bodies, and fragments generated from explosions, collisions, or faulty payload assembly.

Loading next visibility...
Identifier
630, 1963-030C
Orbit
LEO
Last TLE update
11 hours ago
Origin
Manufacturer
Unknown
Mission
Spacecraft
Bus & Motor
Unknown
Mass
~10 kg wet, ~10 kg dry
Launch date (UTC)
1963-07-19 (62 years ago)
Launch vehicle
Unknown
Launch site
Air Force Western Test Range (AFWTR)
Object type
Payload
Rocket body
Debris
Shape & HBR
Box, 0.8 m
Radar Cross Section
1.575 m², Medium (>0.1 m² and < 1m²)

Expand to show TLE details & history

TLE from 11 hours ago
0 ATLAS AGENA B DEB
1 00630U 63030C   25199.52750968  .00000004  00000-0  90612-3 0  9994
2 00630  88.4295 221.2722 0049547 222.4544 137.2469  8.59860376946156
Epoch: 2025-07-18T12:39Z
TLE epoch observation values (Epoch: 2025-07-18T12:39:36.836Z)
Latitude
-0.00003°
Longitude
94.79103°
Altitude
3,725.071 km
Speed
6.27 km/s
True Right ascension
14h 45m 05s
True Declination
0° 00' 00"
Sunlit
Object was in daylight at epoch
Visualization orbit readout
Latitude
-67.2405°
Longitude
91.03413°
Altitude
3,694.944 km
Speed
6.297 km/s
Apparent Right ascension
20h 34m 37s
Apparent Declination
-77° 48' 19"
Sunlit
Object is in daylight
Visualization observer readout
Local Sidereal Time
12:05:55
Azimuth
165.854° S
Elevation
-46.476°
Doppler factor
1
Orbital elements
Apogee altitude
3,733.833 km
Perigee altitude
3,634.123 km
Semi-major axis
10,062.115 km
Eccentricity
0.00495
Inclination
88.4295°
RAAN
221.2722°
Arg. of periapsis
222.4544°
True anomaly
137.63058°
Mean anomaly
137.2469°
Eccentric anomaly
137.43891°
Mean motion
2.15035 °/min
Orbital period
167.41 mins
BSTAR
0.00090612
Loading maneuver chart data...
Loading SW <> Apogee altitude chart data...
Loading historical data...
Loading historical data...
Loading historical data...
Loading historical data...
Loading historical data...
Loading historical data...
Loading historical data...
|